Weather History for KSQL - March, 2012

Change the Weather History Date:

Friday, March 2, 2012

  Actual Average Record
Temperature  
Mean Temperature 50 °F -  
Max Temperature 62 °F 61 °F 73 °F (1959)
Min Temperature 39 °F 43 °F 29 °F (1953)
Degree Days  
Heating Degree Days 14    
Moisture  
Dew Point 35 °F    
Average Humidity 67    
Maximum Humidity 93    
Minimum Humidity 26    
Precipitation  
Precipitation 0.00 in - - ()
Sea Level Pressure  
Sea Level Pressure 30.31 in    
Wind  
Wind Speed 1 mph (NW)    
Max Wind Speed 10 mph    
Max Gust Speed -    
Visibility 11 miles    
Events      
Averages and records for this station are not official NWS values.
T = Trace of Precipitation, MM = Missing Value Source: NWS Daily Summary

Daily Weather History Graph

Daily Weather History Graph

Search for Another Location

Airport or City:

Trip Planner

Search our weather history database for the weather conditions in past years. The results will help you decide how hot, cold, wet, or windy it might be!

Date:

Astronomy

Mar. 02, 2012 Rise Set
Actual Time 6:38 AM PST 6:04 PM PST
Civil Twilight 6:11 AM PST 6:30 PM PST
Nautical Twilight 5:41 AM PST 7:00 PM PST
Astronomical Twilight 5:11 AM PST 7:31 PM PST
Moon 12:26 PM PST (3/2) 2:27 AM PST (3/2)
Length of Visible Light 12h 18m
Length of Day
11h 26m
Waxing Gibbous, 67% of the Moon is Illuminated
Mar 2
Waxing Gibbous
Mar 8
Full
Mar 14
Last Quarter
Mar 22
New
Mar 30
First Quarter

Hourly Weather History & Observations

Time (PST) Temp. Windchill Dew Point Humidity Pressure Visibility Wind Dir Wind Speed Gust Speed Precip Events Conditions
12:30 AM 42.8 °F - 39.2 °F 87% 30.27 in 10.0 mi Calm Calm - N/A   Clear
12:50 AM 42.8 °F - 39.2 °F 87% 30.27 in 10.0 mi Calm Calm - N/A   Clear
1:10 AM 42.8 °F - 39.2 °F 87% 30.27 in 10.0 mi Calm Calm - N/A   Clear
1:30 AM 42.8 °F 41.1 °F 37.4 °F 81% 30.28 in 10.0 mi NW 3.5 mph - N/A   Clear
1:50 AM 42.8 °F - 39.2 °F 87% 30.28 in 10.0 mi Calm Calm - N/A   Clear
2:10 AM 42.8 °F - 39.2 °F 87% 30.28 in 10.0 mi Calm Calm - N/A   Clear
2:30 AM 41.0 °F - 39.2 °F 93% 30.28 in 10.0 mi Calm Calm - N/A   Clear
2:50 AM 41.0 °F - 39.2 °F 93% 30.28 in 10.0 mi Calm Calm - N/A   Clear
3:10 AM 41.0 °F - 39.2 °F 93% 30.28 in 10.0 mi Calm Calm - N/A   Clear
3:30 AM 41.0 °F - 39.2 °F 93% 30.28 in 10.0 mi Calm Calm - N/A   Clear
3:50 AM 41.0 °F - 39.2 °F 93% 30.28 in 10.0 mi Calm Calm - N/A   Clear
4:10 AM 41.0 °F - 39.2 °F 93% 30.28 in 10.0 mi Calm Calm - N/A   Clear
4:30 AM 41.0 °F - 37.4 °F 87% 30.29 in 10.0 mi Calm Calm - N/A   Clear
4:50 AM 39.2 °F - 37.4 °F 93% 30.29 in 10.0 mi Calm Calm - N/A   Clear
5:10 AM 41.0 °F - 37.4 °F 87% 30.30 in 10.0 mi Calm Calm - N/A   Clear
5:30 AM 39.2 °F - 37.4 °F 93% 30.31 in 10.0 mi Calm Calm - N/A   Clear
5:50 AM 41.0 °F 39.0 °F 37.4 °F 87% 30.31 in 10.0 mi SSW 3.5 mph - N/A   Clear
6:10 AM 41.0 °F 39.0 °F 37.4 °F 87% 30.31 in 10.0 mi SW 3.5 mph - N/A   Clear
6:30 AM 41.0 °F 39.0 °F 37.4 °F 87% 30.32 in 10.0 mi West 3.5 mph - N/A   Clear
6:52 AM 41.0 °F 38.0 °F 37.4 °F 87% 30.32 in 20.0 mi WNW 4.6 mph - N/A   Scattered Clouds
7:47 AM 44.6 °F - 37.4 °F 76% 30.34 in 20.0 mi Calm Calm - N/A   Scattered Clouds
8:57 AM 48.2 °F - 41.0 °F 76% 30.37 in 20.0 mi North 4.6 mph - N/A   Scattered Clouds
9:54 AM 50.0 °F - 32.0 °F 50% 30.38 in 30.0 mi NNE 4.6 mph - N/A   Scattered Clouds
10:48 AM 53.6 °F - 26.6 °F 35% 30.38 in 30.0 mi NNE 4.6 mph - N/A   Scattered Clouds
11:47 AM 55.4 °F - 28.4 °F 36% 30.37 in 30.0 mi SE 10.4 mph - N/A   Scattered Clouds
12:47 PM 57.2 °F - 28.4 °F 33% 30.15 in 30.0 mi Calm Calm - N/A   Scattered Clouds
1:47 PM 59.0 °F - 26.6 °F 29% 30.33 in 30.0 mi Calm Calm - N/A   Partly Cloudy
2:51 PM 62.6 °F - 28.4 °F 27% 30.31 in 30.0 mi North 5.8 mph - N/A   Scattered Clouds
3:57 PM 62.6 °F - 26.6 °F 26% 30.30 in 30.0 mi Calm Calm - N/A   Scattered Clouds
4:47 PM 62.6 °F - 28.4 °F 27% 30.29 in 30.0 mi North 5.8 mph - N/A   Partly Cloudy
5:47 PM 59.0 °F - 32.0 °F 36% 30.29 in 30.0 mi WNW 6.9 mph - N/A   Partly Cloudy
6:47 PM 55.4 °F - 28.4 °F 36% 30.30 in 30.0 mi WNW 8.1 mph - N/A   Clear
7:55 PM 53.6 °F - 30.2 °F 41% 30.32 in 30.0 mi WNW 3.5 mph - N/A   Clear
9:10 PM 50.0 °F - 32.0 °F 50% 30.34 in 10.0 mi Calm Calm - N/A   Clear
9:30 PM 50.0 °F - 33.8 °F 54% 30.34 in 10.0 mi Calm Calm - N/A   Clear
9:50 PM 48.2 °F - 33.8 °F 58% 30.34 in 10.0 mi Calm Calm - N/A   Clear
10:10 PM 48.2 °F - 32.0 °F 54% 30.34 in 10.0 mi Calm Calm - N/A   Clear
10:30 PM 48.2 °F - 33.8 °F 58% 30.34 in 10.0 mi Calm Calm - N/A   Clear
10:50 PM 48.2 °F - 32.0 °F 54% 30.34 in 10.0 mi Calm Calm - N/A   Clear
11:15 PM 48.2 °F - 32.0 °F 54% 30.34 in 10.0 mi Calm Calm - N/A   Clear
11:30 PM 46.4 °F - 32.0 °F 57% 30.34 in 10.0 mi Calm Calm - N/A   Clear
11:50 PM 46.4 °F - 32.0 °F 57% 30.34 in 10.0 mi Calm Calm - N/A   Clear